owner,sensor,date,latitude,longitude,vertical_datum,wind_speed,wind_to_direction,wind_speed_of_gust,qcFlag 
TCOON,ioos:station:TCOON:068:1,2013-10-01T00:00:00Z,27.2970,-97.4049,0.0,4.1,127.0,5.0,'11111222,11111222,11111222' 
TCOON,ioos:station:TCOON:068:1,2013-10-01T00:06:00Z,27.2970,-97.4049,0.0,3.8,138.0,4.7,'11111222,11111222,11111222' 
TCOON,ioos:station:TCOON:068:1,2013-10-01T00:12:00Z,27.2970,-97.4049,0.0,3.9,145.0,5.0,'11111222,11111222,11111222' 
TCOON,ioos:station:TCOON:068:1,2013-10-01T00:18:00Z,27.2970,-97.4049,0.0,4.1,148.0,5.4,'11111222,11111222,11111222' 
TCOON,ioos:station:TCOON:068:1,2013-10-01T00:24:00Z,27.2970,-97.4049,0.0,3.9,150.0,4.9,'11111222,11111222,11111222' 
TCOON,ioos:station:TCOON:068:1,2013-10-01T00:30:00Z,27.2970,-97.4049,0.0,4.4,139.0,5.5,'11111222,11111222,11111222' 
TCOON,ioos:station:TCOON:068:1,2013-10-01T00:36:00Z,27.2970,-97.4049,0.0,4.8,135.0,6.1,'11111222,11111222,11111222' 
TCOON,ioos:station:TCOON:068:1,2013-10-01T00:42:00Z,27.2970,-97.4049,0.0,4.6,144.0,5.7,'11111222,11111222,11111222' 
TCOON,ioos:station:TCOON:068:1,2013-10-01T00:48:00Z,27.2970,-97.4049,0.0,4.3,147.0,5.4,'11111222,11111222,11111222' 
TCOON,ioos:station:TCOON:068:1,2013-10-01T00:54:00Z,27.2970,-97.4049,0.0,5.7,150.0,6.2,'1111122,1111122,1111122' 
TCOON,ioos:station:TCOON:068:1,2013-10-01T01:00:00Z,27.2970,-97.4049,0.0,5.0,136.0,5.6,'11111222,11111222,11111222' 
TCOON,ioos:station:TCOON:068:1,2013-10-01T01:06:00Z,27.2970,-97.4049,0.0,4.4,139.0,5.8,'11111222,11111222,11111222' 
TCOON,ioos:station:TCOON:068:1,2013-10-01T01:12:00Z,27.2970,-97.4049,0.0,4.5,140.0,5.4,'11111222,11111222,11111222' 
TCOON,ioos:station:TCOON:068:1,2013-10-01T01:18:00Z,27.2970,-97.4049,0.0,4.6,142.0,5.3,'11111222,11111222,11111222' 
TCOON,ioos:station:TCOON:068:1,2013-10-01T01:24:00Z,27.2970,-97.4049,0.0,4.6,140.0,5.7,'1111122,1111122,1111122' 
TCOON,ioos:station:TCOON:068:1,2013-10-01T01:30:00Z,27.2970,-97.4049,0.0,4.2,141.0,5.5,'11111222,11111222,11111222' 
TCOON,ioos:station:TCOON:068:1,2013-10-01T01:36:00Z,27.2970,-97.4049,0.0,4.9,144.0,5.8,'11111222,11111222,11111222' 
TCOON,ioos:station:TCOON:068:1,2013-10-01T01:42:00Z,27.2970,-97.4049,0.0,4.4,141.0,5.5,'11111222,11111222,11111222' 
TCOON,ioos:station:TCOON:068:1,2013-10-01T01:48:00Z,27.2970,-97.4049,0.0,5.3,147.0,6.1,'11111222,11111222,11111222' 
TCOON,ioos:station:TCOON:068:1,2013-10-01T01:54:00Z,27.2970,-97.4049,0.0,4.6,153.0,6.2,'11111222,11111222,11111222' 
TCOON,ioos:station:TCOON:068:1,2013-10-01T02:00:00Z,27.2970,-97.4049,0.0,5.1,150.0,6.3,'11111222,11111222,11111222' 
TCOON,ioos:station:TCOON:068:1,2013-10-01T02:06:00Z,27.2970,-97.4049,0.0,5.4,148.0,6.7,'11111222,11111222,11111222' 
TCOON,ioos:station:TCOON:068:1,2013-10-01T02:12:00Z,27.2970,-97.4049,0.0,5.1,146.0,6.3,'11111222,11111222,11111222' 
TCOON,ioos:station:TCOON:068:1,2013-10-01T02:18:00Z,27.2970,-97.4049,0.0,4.5,146.0,6.5,'11111222,11111222,11111222' 
TCOON,ioos:station:TCOON:068:1,2013-10-01T02:24:00Z,27.2970,-97.4049,0.0,4.6,147.0,5.7,'11111222,11111222,11111222' 
TCOON,ioos:station:TCOON:068:1,2013-10-01T02:30:00Z,27.2970,-97.4049,0.0,4.9,144.0,6.1,'11111222,11111222,11111222' 
TCOON,ioos:station:TCOON:068:1,2013-10-01T02:36:00Z,27.2970,-97.4049,0.0,5.1,140.0,6.2,'1111122,1111122,1111122' 
TCOON,ioos:station:TCOON:068:1,2013-10-01T02:42:00Z,27.2970,-97.4049,0.0,4.5,145.0,5.6,'11111222,11111222,11111222' 
TCOON,ioos:station:TCOON:068:1,2013-10-01T02:48:00Z,27.2970,-97.4049,0.0,5.1,138.0,5.8,'11111222,11111222,11111222' 
TCOON,ioos:station:TCOON:068:1,2013-10-01T02:54:00Z,27.2970,-97.4049,0.0,4.6,140.0,6.2,'1111122,1111122,1111122' 
TCOON,ioos:station:TCOON:068:1,2013-10-01T03:00:00Z,27.2970,-97.4049,0.0,5.0,151.0,6.2,'11111222,11111222,11111222' 
TCOON,ioos:station:TCOON:068:1,2013-10-01T03:06:00Z,27.2970,-97.4049,0.0,5.2,151.0,6.1,'11111222,11111222,11111222' 
TCOON,ioos:station:TCOON:068:1,2013-10-01T03:12:00Z,27.2970,-97.4049,0.0,4.7,152.0,6.7,'11111222,11111222,11111222' 
TCOON,ioos:station:TCOON:068:1,2013-10-01T03:18:00Z,27.2970,-97.4049,0.0,5.2,152.0,6.5,'11111222,11111222,11111222' 
TCOON,ioos:station:TCOON:068:1,2013-10-01T03:24:00Z,27.2970,-97.4049,0.0,5.9,149.0,7.1,'11111222,11111222,11111222' 
TCOON,ioos:station:TCOON:068:1,2013-10-01T03:30:00Z,27.2970,-97.4049,0.0,5.7,150.0,7.2,'1111122,1111122,1111122' 
TCOON,ioos:station:TCOON:068:1,2013-10-01T03:36:00Z,27.2970,-97.4049,0.0,6.1,145.0,7.2,'11111222,11111222,11111222' 
TCOON,ioos:station:TCOON:068:1,2013-10-01T03:42:00Z,27.2970,-97.4049,0.0,5.8,145.0,7.4,'11111222,11111222,11111222' 
TCOON,ioos:station:TCOON:068:1,2013-10-01T03:48:00Z,27.2970,-97.4049,0.0,5.7,149.0,7.4,'11111222,11111222,11111222' 
TCOON,ioos:station:TCOON:068:1,2013-10-01T03:54:00Z,27.2970,-97.4049,0.0,6.0,154.0,7.2,'11111222,11111222,11111222' 
TCOON,ioos:station:TCOON:068:1,2013-10-01T04:00:00Z,27.2970,-97.4049,0.0,5.3,148.0,7.1,'11111222,11111222,11111222' 
TCOON,ioos:station:TCOON:068:1,2013-10-01T04:06:00Z,27.2970,-97.4049,0.0,5.5,152.0,6.7,'11111222,11111222,11111222' 
TCOON,ioos:station:TCOON:068:1,2013-10-01T04:12:00Z,27.2970,-97.4049,0.0,5.6,154.0,7.0,'11111222,11111222,11111222' 
TCOON,ioos:station:TCOON:068:1,2013-10-01T04:18:00Z,27.2970,-97.4049,0.0,6.0,154.0,7.2,'11111222,11111222,11111222' 
TCOON,ioos:station:TCOON:068:1,2013-10-01T04:24:00Z,27.2970,-97.4049,0.0,6.2,160.0,8.2,'1111122,1111122,1111122' 
TCOON,ioos:station:TCOON:068:1,2013-10-01T04:30:00Z,27.2970,-97.4049,0.0,6.1,156.0,7.7,'11111222,11111222,11111222' 
TCOON,ioos:station:TCOON:068:1,2013-10-01T04:36:00Z,27.2970,-97.4049,0.0,6.0,156.0,7.6,'11111222,11111222,11111222' 
TCOON,ioos:station:TCOON:068:1,2013-10-01T04:42:00Z,27.2970,-97.4049,0.0,6.3,155.0,7.8,'11111222,11111222,11111222' 
TCOON,ioos:station:TCOON:068:1,2013-10-01T04:48:00Z,27.2970,-97.4049,0.0,6.2,160.0,8.2,'1111122,1111122,1111122' 
TCOON,ioos:station:TCOON:068:1,2013-10-01T04:54:00Z,27.2970,-97.4049,0.0,6.2,170.0,8.4,'11111222,11111222,11111222' 
TCOON,ioos:station:TCOON:068:1,2013-10-01T05:00:00Z,27.2970,-97.4049,0.0,7.1,173.0,8.3,'11111222,11111222,11111222' 
TCOON,ioos:station:TCOON:068:1,2013-10-01T05:06:00Z,27.2970,-97.4049,0.0,7.1,175.0,8.2,'11111222,11111222,11111222' 
TCOON,ioos:station:TCOON:068:1,2013-10-01T05:12:00Z,27.2970,-97.4049,0.0,8.4,173.0,9.6,'11111222,11111222,11111222' 
TCOON,ioos:station:TCOON:068:1,2013-10-01T05:18:00Z,27.2970,-97.4049,0.0,8.0,175.0,9.7,'11111222,11111222,11111222' 
TCOON,ioos:station:TCOON:068:1,2013-10-01T05:24:00Z,27.2970,-97.4049,0.0,8.7,174.0,9.6,'11111222,11111222,11111222' 
TCOON,ioos:station:TCOON:068:1,2013-10-01T05:30:00Z,27.2970,-97.4049,0.0,7.8,173.0,9.4,'11111222,11111222,11111222' 
TCOON,ioos:station:TCOON:068:1,2013-10-01T05:36:00Z,27.2970,-97.4049,0.0,7.2,175.0,8.8,'11111222,11111222,11111222' 
TCOON,ioos:station:TCOON:068:1,2013-10-01T05:42:00Z,27.2970,-97.4049,0.0,7.7,175.0,8.9,'11111222,11111222,11111222' 
TCOON,ioos:station:TCOON:068:1,2013-10-01T05:48:00Z,27.2970,-97.4049,0.0,7.4,172.0,8.5,'11111222,11111222,11111222' 
TCOON,ioos:station:TCOON:068:1,2013-10-01T05:54:00Z,27.2970,-97.4049,0.0,7.4,173.0,9.0,'11111222,11111222,11111222' 
TCOON,ioos:station:TCOON:068:1,2013-10-01T06:00:00Z,27.2970,-97.4049,0.0,6.8,171.0,8.5,'11111222,11111222,11111222' 
TCOON,ioos:station:TCOON:068:1,2013-10-01T06:06:00Z,27.2970,-97.4049,0.0,7.2,170.0,8.8,'1111122,1111122,1111122' 
TCOON,ioos:station:TCOON:068:1,2013-10-01T06:12:00Z,27.2970,-97.4049,0.0,7.0,180.0,8.5,'11111222,11111222,11111222' 
TCOON,ioos:station:TCOON:068:1,2013-10-01T06:18:00Z,27.2970,-97.4049,0.0,7.7,183.0,8.6,'11111222,11111222,11111222' 
TCOON,ioos:station:TCOON:068:1,2013-10-01T06:24:00Z,27.2970,-97.4049,0.0,7.8,182.0,9.3,'11111222,11111222,11111222' 
TCOON,ioos:station:TCOON:068:1,2013-10-01T06:30:00Z,27.2970,-97.4049,0.0,8.8,190.0,10.3,'1111122,1111122,1111122' 
TCOON,ioos:station:TCOON:068:1,2013-10-01T06:36:00Z,27.2970,-97.4049,0.0,8.2,182.0,9.8,'11111222,11111222,11111222' 
TCOON,ioos:station:TCOON:068:1,2013-10-01T06:42:00Z,27.2970,-97.4049,0.0,8.1,189.0,9.2,'11111222,11111222,11111222' 
TCOON,ioos:station:TCOON:068:1,2013-10-01T06:48:00Z,27.2970,-97.4049,0.0,7.7,190.0,9.3,'1111122,1111122,1111122' 
TCOON,ioos:station:TCOON:068:1,2013-10-01T06:54:00Z,27.2970,-97.4049,0.0,7.6,190.0,9.3,'11111222,11111222,11111222' 
TCOON,ioos:station:TCOON:068:1,2013-10-01T07:00:00Z,27.2970,-97.4049,0.0,7.8,188.0,8.8,'11111222,11111222,11111222' 
TCOON,ioos:station:TCOON:068:1,2013-10-01T07:06:00Z,27.2970,-97.4049,0.0,8.0,189.0,9.0,'11111222,11111222,11111222' 
TCOON,ioos:station:TCOON:068:1,2013-10-01T07:12:00Z,27.2970,-97.4049,0.0,7.9,189.0,9.2,'11111222,11111222,11111222' 
TCOON,ioos:station:TCOON:068:1,2013-10-01T07:18:00Z,27.2970,-97.4049,0.0,7.9,190.0,9.4,'11111222,11111222,11111222' 
TCOON,ioos:station:TCOON:068:1,2013-10-01T07:24:00Z,27.2970,-97.4049,0.0,7.7,190.0,9.3,'1111122,1111122,1111122' 
TCOON,ioos:station:TCOON:068:1,2013-10-01T07:30:00Z,27.2970,-97.4049,0.0,6.9,203.0,8.7,'11111222,11111222,11111222' 
TCOON,ioos:station:TCOON:068:1,2013-10-01T07:36:00Z,27.2970,-97.4049,0.0,6.9,198.0,7.8,'11111222,11111222,11111222' 
TCOON,ioos:station:TCOON:068:1,2013-10-01T07:42:00Z,27.2970,-97.4049,0.0,7.2,201.0,8.3,'11111222,11111222,11111222' 
TCOON,ioos:station:TCOON:068:1,2013-10-01T07:48:00Z,27.2970,-97.4049,0.0,7.2,200.0,8.8,'1111122,1111122,1111122' 
TCOON,ioos:station:TCOON:068:1,2013-10-01T07:54:00Z,27.2970,-97.4049,0.0,6.9,200.0,9.1,'11111222,11111222,11111222' 
TCOON,ioos:station:TCOON:068:1,2013-10-01T08:00:00Z,27.2970,-97.4049,0.0,7.3,198.0,8.5,'11111222,11111222,11111222' 
TCOON,ioos:station:TCOON:068:1,2013-10-01T08:06:00Z,27.2970,-97.4049,0.0,6.5,199.0,8.3,'11111222,11111222,11111222' 
TCOON,ioos:station:TCOON:068:1,2013-10-01T08:12:00Z,27.2970,-97.4049,0.0,6.7,201.0,7.9,'11111222,11111222,11111222' 
TCOON,ioos:station:TCOON:068:1,2013-10-01T08:18:00Z,27.2970,-97.4049,0.0,6.9,198.0,8.0,'11111222,11111222,11111222' 
TCOON,ioos:station:TCOON:068:1,2013-10-01T08:24:00Z,27.2970,-97.4049,0.0,7.2,190.0,8.8,'1111122,1111122,1111122' 
TCOON,ioos:station:TCOON:068:1,2013-10-01T08:30:00Z,27.2970,-97.4049,0.0,8.5,187.0,9.7,'11111222,11111222,11111222' 
TCOON,ioos:station:TCOON:068:1,2013-10-01T08:36:00Z,27.2970,-97.4049,0.0,8.1,187.0,9.5,'11111222,11111222,11111222' 
TCOON,ioos:station:TCOON:068:1,2013-10-01T08:42:00Z,27.2970,-97.4049,0.0,7.8,191.0,9.0,'11111222,11111222,11111222' 
TCOON,ioos:station:TCOON:068:1,2013-10-01T08:48:00Z,27.2970,-97.4049,0.0,7.6,191.0,9.1,'11111222,11111222,11111222' 
TCOON,ioos:station:TCOON:068:1,2013-10-01T08:54:00Z,27.2970,-97.4049,0.0,7.7,190.0,9.3,'1111122,1111122,1111122' 
TCOON,ioos:station:TCOON:068:1,2013-10-01T09:00:00Z,27.2970,-97.4049,0.0,7.1,191.0,8.8,'11111222,11111222,11111222' 
TCOON,ioos:station:TCOON:068:1,2013-10-01T09:06:00Z,27.2970,-97.4049,0.0,7.2,190.0,9.0,'11111222,11111222,11111222' 
TCOON,ioos:station:TCOON:068:1,2013-10-01T09:12:00Z,27.2970,-97.4049,0.0,7.4,194.0,8.3,'11111222,11111222,11111222' 
TCOON,ioos:station:TCOON:068:1,2013-10-01T09:18:00Z,27.2970,-97.4049,0.0,6.9,196.0,7.8,'11111222,11111222,11111222' 
TCOON,ioos:station:TCOON:068:1,2013-10-01T09:24:00Z,27.2970,-97.4049,0.0,5.9,202.0,8.5,'11111222,11111222,11111222' 
TCOON,ioos:station:TCOON:068:1,2013-10-01T09:30:00Z,27.2970,-97.4049,0.0,5.4,208.0,6.8,'11111222,11111222,11111222' 
TCOON,ioos:station:TCOON:068:1,2013-10-01T09:36:00Z,27.2970,-97.4049,0.0,5.7,200.0,6.2,'1111122,1111122,1111122' 
TCOON,ioos:station:TCOON:068:1,2013-10-01T09:42:00Z,27.2970,-97.4049,0.0,5.6,200.0,6.4,'11111222,11111222,11111222' 
TCOON,ioos:station:TCOON:068:1,2013-10-01T09:48:00Z,27.2970,-97.4049,0.0,5.2,200.0,6.2,'11111222,11111222,11111222' 
TCOON,ioos:station:TCOON:068:1,2013-10-01T09:54:00Z,27.2970,-97.4049,0.0,5.1,200.0,6.2,'1111122,1111122,1111122' 
TCOON,ioos:station:TCOON:068:1,2013-10-01T10:00:00Z,27.2970,-97.4049,0.0,5.1,196.0,5.9,'11111222,11111222,11111222' 
TCOON,ioos:station:TCOON:068:1,2013-10-01T10:06:00Z,27.2970,-97.4049,0.0,5.5,187.0,6.3,'11111222,11111222,11111222' 
TCOON,ioos:station:TCOON:068:1,2013-10-01T10:12:00Z,27.2970,-97.4049,0.0,5.7,188.0,6.8,'11111222,11111222,11111222' 
TCOON,ioos:station:TCOON:068:1,2013-10-01T10:18:00Z,27.2970,-97.4049,0.0,5.3,192.0,6.7,'11111222,11111222,11111222' 
TCOON,ioos:station:TCOON:068:1,2013-10-01T10:24:00Z,27.2970,-97.4049,0.0,5.8,185.0,6.7,'11111222,11111222,11111222' 
TCOON,ioos:station:TCOON:068:1,2013-10-01T10:30:00Z,27.2970,-97.4049,0.0,5.8,188.0,6.9,'11111222,11111222,11111222' 
TCOON,ioos:station:TCOON:068:1,2013-10-01T10:36:00Z,27.2970,-97.4049,0.0,5.5,184.0,6.7,'11111222,11111222,11111222' 
TCOON,ioos:station:TCOON:068:1,2013-10-01T10:42:00Z,27.2970,-97.4049,0.0,5.4,184.0,7.1,'11111222,11111222,11111222' 
TCOON,ioos:station:TCOON:068:1,2013-10-01T10:48:00Z,27.2970,-97.4049,0.0,5.7,190.0,6.7,'1111122,1111122,1111122' 
TCOON,ioos:station:TCOON:068:1,2013-10-01T10:54:00Z,27.2970,-97.4049,0.0,5.0,182.0,5.7,'11111222,11111222,11111222' 
TCOON,ioos:station:TCOON:068:1,2013-10-01T11:00:00Z,27.2970,-97.4049,0.0,5.3,181.0,6.3,'11111222,11111222,11111222' 
TCOON,ioos:station:TCOON:068:1,2013-10-01T11:06:00Z,27.2970,-97.4049,0.0,6.1,184.0,6.9,'11111222,11111222,11111222' 
TCOON,ioos:station:TCOON:068:1,2013-10-01T11:12:00Z,27.2970,-97.4049,0.0,5.8,177.0,7.3,'11111222,11111222,11111222' 
TCOON,ioos:station:TCOON:068:1,2013-10-01T11:18:00Z,27.2970,-97.4049,0.0,5.7,182.0,7.0,'11111222,11111222,11111222' 
TCOON,ioos:station:TCOON:068:1,2013-10-01T11:24:00Z,27.2970,-97.4049,0.0,6.2,180.0,7.2,'1111122,1111122,1111122' 
TCOON,ioos:station:TCOON:068:1,2013-10-01T11:30:00Z,27.2970,-97.4049,0.0,6.3,185.0,7.7,'11111222,11111222,11111222' 
TCOON,ioos:station:TCOON:068:1,2013-10-01T11:36:00Z,27.2970,-97.4049,0.0,5.8,184.0,6.9,'11111222,11111222,11111222' 
TCOON,ioos:station:TCOON:068:1,2013-10-01T11:42:00Z,27.2970,-97.4049,0.0,5.2,178.0,7.1,'11111222,11111222,11111222' 
TCOON,ioos:station:TCOON:068:1,2013-10-01T11:48:00Z,27.2970,-97.4049,0.0,5.1,180.0,6.2,'1111122,1111122,1111122' 
TCOON,ioos:station:TCOON:068:1,2013-10-01T11:54:00Z,27.2970,-97.4049,0.0,5.0,194.0,7.2,'11111222,11111222,11111222' 
TCOON,ioos:station:TCOON:068:1,2013-10-01T12:00:00Z,27.2970,-97.4049,0.0,4.1,199.0,4.7,'11111222,11111222,11111222' 
TCOON,ioos:station:TCOON:068:1,2013-10-01T12:06:00Z,27.2970,-97.4049,0.0,3.4,202.0,5.1,'11111222,11111222,11111222' 
TCOON,ioos:station:TCOON:068:1,2013-10-01T12:12:00Z,27.2970,-97.4049,0.0,3.6,197.0,4.4,'11111222,11111222,11111222' 
TCOON,ioos:station:TCOON:068:1,2013-10-01T12:18:00Z,27.2970,-97.4049,0.0,3.9,189.0,4.7,'11111222,11111222,11111222' 
TCOON,ioos:station:TCOON:068:1,2013-10-01T12:24:00Z,27.2970,-97.4049,0.0,4.1,190.0,5.1,'1111122,1111122,1111122' 
TCOON,ioos:station:TCOON:068:1,2013-10-01T12:30:00Z,27.2970,-97.4049,0.0,5.0,183.0,5.8,'11111222,11111222,11111222' 
TCOON,ioos:station:TCOON:068:1,2013-10-01T12:36:00Z,27.2970,-97.4049,0.0,5.1,169.0,6.0,'11111222,11111222,11111222' 
TCOON,ioos:station:TCOON:068:1,2013-10-01T12:42:00Z,27.2970,-97.4049,0.0,5.7,167.0,7.1,'11111222,11111222,11111222' 
TCOON,ioos:station:TCOON:068:1,2013-10-01T12:48:00Z,27.2970,-97.4049,0.0,5.9,179.0,7.2,'11111222,11111222,11111222' 
TCOON,ioos:station:TCOON:068:1,2013-10-01T12:54:00Z,27.2970,-97.4049,0.0,6.7,180.0,7.7,'1111122,1111122,1111122' 
TCOON,ioos:station:TCOON:068:1,2013-10-01T13:00:00Z,27.2970,-97.4049,0.0,6.2,178.0,7.6,'11111222,11111222,11111222' 
TCOON,ioos:station:TCOON:068:1,2013-10-01T13:06:00Z,27.2970,-97.4049,0.0,6.6,180.0,7.8,'11111222,11111222,11111222' 
TCOON,ioos:station:TCOON:068:1,2013-10-01T13:12:00Z,27.2970,-97.4049,0.0,6.6,184.0,7.4,'11111222,11111222,11111222' 
TCOON,ioos:station:TCOON:068:1,2013-10-01T13:18:00Z,27.2970,-97.4049,0.0,6.6,181.0,7.9,'11111222,11111222,11111222' 
TCOON,ioos:station:TCOON:068:1,2013-10-01T13:24:00Z,27.2970,-97.4049,0.0,6.2,180.0,7.7,'1111122,1111122,1111122' 
TCOON,ioos:station:TCOON:068:1,2013-10-01T13:30:00Z,27.2970,-97.4049,0.0,6.8,181.0,7.9,'11111222,11111222,11111222' 
TCOON,ioos:station:TCOON:068:1,2013-10-01T13:36:00Z,27.2970,-97.4049,0.0,6.5,178.0,7.5,'11111222,11111222,11111222' 
TCOON,ioos:station:TCOON:068:1,2013-10-01T13:42:00Z,27.2970,-97.4049,0.0,6.4,177.0,7.5,'11111222,11111222,11111222' 
TCOON,ioos:station:TCOON:068:1,2013-10-01T13:48:00Z,27.2970,-97.4049,0.0,5.4,176.0,7.2,'11111222,11111222,11111222' 
TCOON,ioos:station:TCOON:068:1,2013-10-01T13:54:00Z,27.2970,-97.4049,0.0,5.7,171.0,7.7,'11111222,11111222,11111222' 
TCOON,ioos:station:TCOON:068:1,2013-10-01T14:00:00Z,27.2970,-97.4049,0.0,6.5,172.0,7.5,'11111222,11111222,11111222' 
TCOON,ioos:station:TCOON:068:1,2013-10-01T14:06:00Z,27.2970,-97.4049,0.0,5.8,175.0,7.1,'11111222,11111222,11111222' 
TCOON,ioos:station:TCOON:068:1,2013-10-01T14:12:00Z,27.2970,-97.4049,0.0,6.4,171.0,7.7,'11111222,11111222,11111222' 
TCOON,ioos:station:TCOON:068:1,2013-10-01T14:18:00Z,27.2970,-97.4049,0.0,5.6,168.0,6.6,'11111222,11111222,11111222' 
TCOON,ioos:station:TCOON:068:1,2013-10-01T14:24:00Z,27.2970,-97.4049,0.0,5.7,170.0,6.7,'1111122,1111122,1111122' 
TCOON,ioos:station:TCOON:068:1,2013-10-01T14:30:00Z,27.2970,-97.4049,0.0,6.0,171.0,6.9,'11111222,11111222,11111222' 
TCOON,ioos:station:TCOON:068:1,2013-10-01T14:36:00Z,27.2970,-97.4049,0.0,6.2,176.0,7.1,'11111222,11111222,11111222' 
TCOON,ioos:station:TCOON:068:1,2013-10-01T14:42:00Z,27.2970,-97.4049,0.0,6.1,182.0,7.2,'11111222,11111222,11111222' 
TCOON,ioos:station:TCOON:068:1,2013-10-01T14:48:00Z,27.2970,-97.4049,0.0,6.4,187.0,7.4,'11111222,11111222,11111222' 
TCOON,ioos:station:TCOON:068:1,2013-10-01T14:54:00Z,27.2970,-97.4049,0.0,7.2,180.0,8.2,'1111122,1111122,1111122' 
TCOON,ioos:station:TCOON:068:1,2013-10-01T15:00:00Z,27.2970,-97.4049,0.0,6.5,178.0,7.4,'11111222,11111222,11111222' 
TCOON,ioos:station:TCOON:068:1,2013-10-01T15:06:00Z,27.2970,-97.4049,0.0,7.0,181.0,8.5,'11111222,11111222,11111222' 
TCOON,ioos:station:TCOON:068:1,2013-10-01T15:12:00Z,27.2970,-97.4049,0.0,7.1,183.0,8.2,'11111222,11111222,11111222' 
TCOON,ioos:station:TCOON:068:1,2013-10-01T15:18:00Z,27.2970,-97.4049,0.0,7.2,183.0,8.0,'11111222,11111222,11111222' 
TCOON,ioos:station:TCOON:068:1,2013-10-01T15:24:00Z,27.2970,-97.4049,0.0,6.6,181.0,8.2,'11111222,11111222,11111222' 
TCOON,ioos:station:TCOON:068:1,2013-10-01T15:30:00Z,27.2970,-97.4049,0.0,7.0,183.0,8.1,'11111222,11111222,11111222' 
TCOON,ioos:station:TCOON:068:1,2013-10-01T15:36:00Z,27.2970,-97.4049,0.0,7.1,187.0,7.7,'11111222,11111222,11111222' 
TCOON,ioos:station:TCOON:068:1,2013-10-01T15:42:00Z,27.2970,-97.4049,0.0,6.8,181.0,7.8,'11111222,11111222,11111222' 
TCOON,ioos:station:TCOON:068:1,2013-10-01T15:48:00Z,27.2970,-97.4049,0.0,6.6,185.0,7.4,'11111222,11111222,11111222' 
TCOON,ioos:station:TCOON:068:1,2013-10-01T15:54:00Z,27.2970,-97.4049,0.0,7.1,181.0,8.5,'11111222,11111222,11111222' 
TCOON,ioos:station:TCOON:068:1,2013-10-01T16:00:00Z,27.2970,-97.4049,0.0,7.3,180.0,8.2,'11111222,11111222,11111222' 
TCOON,ioos:station:TCOON:068:1,2013-10-01T16:06:00Z,27.2970,-97.4049,0.0,6.7,180.0,8.2,'1111122,1111122,1111122' 
TCOON,ioos:station:TCOON:068:1,2013-10-01T16:12:00Z,27.2970,-97.4049,0.0,6.4,179.0,7.9,'11111222,11111222,11111222' 
TCOON,ioos:station:TCOON:068:1,2013-10-01T16:18:00Z,27.2970,-97.4049,0.0,6.8,177.0,8.1,'11111222,11111222,11111222' 
TCOON,ioos:station:TCOON:068:1,2013-10-01T16:24:00Z,27.2970,-97.4049,0.0,6.2,180.0,8.2,'1111122,1111122,1111122' 
TCOON,ioos:station:TCOON:068:1,2013-10-01T16:30:00Z,27.2970,-97.4049,0.0,6.9,180.0,7.8,'11111222,11111222,11111222' 
TCOON,ioos:station:TCOON:068:1,2013-10-01T16:36:00Z,27.2970,-97.4049,0.0,7.0,180.0,7.8,'11111222,11111222,11111222' 
TCOON,ioos:station:TCOON:068:1,2013-10-01T16:42:00Z,27.2970,-97.4049,0.0,6.8,182.0,7.8,'11111222,11111222,11111222' 
TCOON,ioos:station:TCOON:068:1,2013-10-01T16:48:00Z,27.2970,-97.4049,0.0,6.7,190.0,7.7,'1111122,1111122,1111122' 
TCOON,ioos:station:TCOON:068:1,2013-10-01T16:54:00Z,27.2970,-97.4049,0.0,6.6,179.0,7.9,'11111222,11111222,11111222' 
TCOON,ioos:station:TCOON:068:1,2013-10-01T17:00:00Z,27.2970,-97.4049,0.0,7.5,183.0,8.9,'11111222,11111222,11111222' 
TCOON,ioos:station:TCOON:068:1,2013-10-01T17:06:00Z,27.2970,-97.4049,0.0,6.8,188.0,8.6,'11111222,11111222,11111222' 
TCOON,ioos:station:TCOON:068:1,2013-10-01T17:12:00Z,27.2970,-97.4049,0.0,7.0,185.0,7.7,'11111222,11111222,11111222' 
TCOON,ioos:station:TCOON:068:1,2013-10-01T17:18:00Z,27.2970,-97.4049,0.0,6.6,183.0,8.1,'11111222,11111222,11111222' 
TCOON,ioos:station:TCOON:068:1,2013-10-01T17:24:00Z,27.2970,-97.4049,0.0,6.6,184.0,7.9,'11111222,11111222,11111222' 
TCOON,ioos:station:TCOON:068:1,2013-10-01T17:30:00Z,27.2970,-97.4049,0.0,5.6,176.0,6.8,'11111222,11111222,11111222' 
TCOON,ioos:station:TCOON:068:1,2013-10-01T17:36:00Z,27.2970,-97.4049,0.0,5.7,170.0,7.2,'1111122,1111122,1111122' 
TCOON,ioos:station:TCOON:068:1,2013-10-01T17:42:00Z,27.2970,-97.4049,0.0,6.7,169.0,7.6,'11111222,11111222,11111222' 
TCOON,ioos:station:TCOON:068:1,2013-10-01T17:48:00Z,27.2970,-97.4049,0.0,6.6,173.0,7.6,'11111222,11111222,11111222' 
TCOON,ioos:station:TCOON:068:1,2013-10-01T17:54:00Z,27.2970,-97.4049,0.0,6.2,170.0,7.7,'1111122,1111122,1111122' 
TCOON,ioos:station:TCOON:068:1,2013-10-01T18:00:00Z,27.2970,-97.4049,0.0,5.7,176.0,7.5,'11111222,11111222,11111222' 
TCOON,ioos:station:TCOON:068:1,2013-10-01T18:06:00Z,27.2970,-97.4049,0.0,5.7,180.0,7.5,'11111222,11111222,11111222' 
TCOON,ioos:station:TCOON:068:1,2013-10-01T18:12:00Z,27.2970,-97.4049,0.0,5.7,177.0,6.9,'11111222,11111222,11111222' 
TCOON,ioos:station:TCOON:068:1,2013-10-01T18:18:00Z,27.2970,-97.4049,0.0,6.7,153.0,8.7,'11111222,11111222,11111222' 
TCOON,ioos:station:TCOON:068:1,2013-10-01T18:24:00Z,27.2970,-97.4049,0.0,5.7,160.0,8.2,'1111122,1111122,1111122' 
TCOON,ioos:station:TCOON:068:1,2013-10-01T18:30:00Z,27.2970,-97.4049,0.0,5.7,153.0,8.1,'11111222,11111222,11111222' 
TCOON,ioos:station:TCOON:068:1,2013-10-01T18:36:00Z,27.2970,-97.4049,0.0,6.5,146.0,8.2,'11111222,11111222,11111222' 
TCOON,ioos:station:TCOON:068:1,2013-10-01T18:42:00Z,27.2970,-97.4049,0.0,5.8,153.0,8.4,'11111222,11111222,11111222' 
TCOON,ioos:station:TCOON:068:1,2013-10-01T18:48:00Z,27.2970,-97.4049,0.0,7.0,147.0,9.1,'11111222,11111222,11111222' 
TCOON,ioos:station:TCOON:068:1,2013-10-01T18:54:00Z,27.2970,-97.4049,0.0,6.4,155.0,8.5,'11111222,11111222,11111222' 
TCOON,ioos:station:TCOON:068:1,2013-10-01T19:00:00Z,27.2970,-97.4049,0.0,7.8,150.0,9.2,'11111222,11111222,11111222' 
TCOON,ioos:station:TCOON:068:1,2013-10-01T19:06:00Z,27.2970,-97.4049,0.0,7.6,151.0,9.0,'11111222,11111222,11111222' 
TCOON,ioos:station:TCOON:068:1,2013-10-01T19:12:00Z,27.2970,-97.4049,0.0,8.0,146.0,9.7,'11111222,11111222,11111222' 
TCOON,ioos:station:TCOON:068:1,2013-10-01T19:18:00Z,27.2970,-97.4049,0.0,6.9,148.0,9.4,'11111222,11111222,11111222' 
TCOON,ioos:station:TCOON:068:1,2013-10-01T19:24:00Z,27.2970,-97.4049,0.0,8.8,150.0,10.3,'1111122,1111122,1111122' 
TCOON,ioos:station:TCOON:068:1,2013-10-01T19:30:00Z,27.2970,-97.4049,0.0,7.5,145.0,9.5,'11111222,11111222,11111222' 
TCOON,ioos:station:TCOON:068:1,2013-10-01T19:36:00Z,27.2970,-97.4049,0.0,7.4,143.0,9.3,'11111222,11111222,11111222' 
TCOON,ioos:station:TCOON:068:1,2013-10-01T19:42:00Z,27.2970,-97.4049,0.0,7.0,143.0,8.8,'11111222,11111222,11111222' 
TCOON,ioos:station:TCOON:068:1,2013-10-01T19:48:00Z,27.2970,-97.4049,0.0,7.5,143.0,9.4,'11111222,11111222,11111222' 
TCOON,ioos:station:TCOON:068:1,2013-10-01T19:54:00Z,27.2970,-97.4049,0.0,8.2,140.0,9.3,'1111122,1111122,1111122' 
TCOON,ioos:station:TCOON:068:1,2013-10-01T20:00:00Z,27.2970,-97.4049,0.0,7.5,136.0,9.6,'11111222,11111222,11111222' 
TCOON,ioos:station:TCOON:068:1,2013-10-01T20:06:00Z,27.2970,-97.4049,0.0,7.2,143.0,9.9,'11111222,11111222,11111222' 
TCOON,ioos:station:TCOON:068:1,2013-10-01T20:12:00Z,27.2970,-97.4049,0.0,6.9,128.0,8.9,'11111222,11111222,11111222' 
TCOON,ioos:station:TCOON:068:1,2013-10-01T20:18:00Z,27.2970,-97.4049,0.0,6.9,140.0,8.9,'11111222,11111222,11111222' 
TCOON,ioos:station:TCOON:068:1,2013-10-01T20:24:00Z,27.2970,-97.4049,0.0,6.0,130.0,9.1,'11111222,11111222,11111222' 